Time,TemperatureF,DewpointF,PressureIn,WindDirection,WindDirectionDegrees,WindSpeedMPH,WindSpeedGustMPH,Humidity,HourlyPrecipIn,Conditions,Clouds,dailyrainin,SoftwareType,DateUTC
2013-09-26 00:01:00,75.0,53.4,29.61,SSE,157,0.0,-999.0,47,-99.99,,,0.00,Acu-Link.com,2013-09-26 05:01:00,
2013-09-26 00:16:00,75.0,54.0,29.61,SSE,157,0.0,-999.0,48,-99.99,,,0.00,Acu-Link.com,2013-09-26 05:16:00,
2013-09-26 00:31:00,75.4,53.1,29.60,SSW,202,0.0,-999.0,46,-99.99,,,0.00,Acu-Link.com,2013-09-26 05:31:00,
2013-09-26 00:46:00,74.7,53.7,29.60,South,180,0.0,-999.0,48,-99.99,,,0.00,Acu-Link.com,2013-09-26 05:46:00,
2013-09-26 01:02:00,74.5,52.9,29.60,SSE,157,0.0,-999.0,47,-99.99,,,0.00,Acu-Link.com,2013-09-26 06:02:00,
2013-09-26 01:17:00,73.9,53.6,29.60,South,180,0.0,-999.0,49,-99.99,,,0.00,Acu-Link.com,2013-09-26 06:17:00,
2013-09-26 01:32:00,73.0,53.8,29.60,South,180,0.0,-999.0,51,-99.99,,,0.00,Acu-Link.com,2013-09-26 06:32:00,
2013-09-26 01:47:00,72.0,54.4,29.61,South,180,0.0,-999.0,54,-99.99,,,0.00,Acu-Link.com,2013-09-26 06:47:00,
2013-09-26 02:03:00,71.4,53.9,29.60,South,180,0.0,-999.0,54,-99.99,,,0.00,Acu-Link.com,2013-09-26 07:03:00,
2013-09-26 02:18:00,71.2,54.2,29.61,South,180,0.0,-999.0,55,-99.99,,,0.00,Acu-Link.com,2013-09-26 07:18:00,
2013-09-26 02:33:00,72.1,52.5,29.61,SSW,202,0.0,-999.0,50,-99.99,,,0.00,Acu-Link.com,2013-09-26 07:33:00,
2013-09-26 02:48:00,72.7,52.4,29.61,West,270,0.0,-999.0,49,-99.99,,,0.00,Acu-Link.com,2013-09-26 07:48:00,
2013-09-26 03:04:00,72.5,52.8,29.61,East,90,0.0,-999.0,50,-99.99,,,0.00,Acu-Link.com,2013-09-26 08:04:00,
2013-09-26 03:19:00,72.3,52.6,29.61,SSE,157,0.0,-999.0,50,-99.99,,,0.00,Acu-Link.com,2013-09-26 08:19:00,
2013-09-26 03:34:00,72.0,52.8,29.61,SE,135,0.0,-999.0,51,-99.99,,,0.00,Acu-Link.com,2013-09-26 08:34:00,
2013-09-26 03:49:00,71.6,52.5,29.61,South,180,0.0,-999.0,51,-99.99,,,0.00,Acu-Link.com,2013-09-26 08:49:00,
2013-09-26 04:05:00,71.6,53.0,29.61,SSE,157,0.0,-999.0,52,-99.99,,,0.00,Acu-Link.com,2013-09-26 09:05:00,
2013-09-26 04:20:00,71.8,52.7,29.61,SSE,157,0.0,-999.0,51,-99.99,,,0.00,Acu-Link.com,2013-09-26 09:20:00,
2013-09-26 04:35:00,71.8,52.1,29.61,SE,135,0.0,-999.0,50,-99.99,,,0.00,Acu-Link.com,2013-09-26 09:35:00,
2013-09-26 04:50:00,70.5,56.0,29.61,SSE,157,0.0,-999.0,60,-99.99,,,0.00,Acu-Link.com,2013-09-26 09:50:00,
2013-09-26 05:07:00,70.0,56.8,29.60,South,180,0.0,-999.0,63,-99.99,,,0.00,Acu-Link.com,2013-09-26 10:07:00,
2013-09-26 05:22:00,70.0,53.6,29.61,SSE,157,0.0,-999.0,56,-99.99,,,0.00,Acu-Link.com,2013-09-26 10:22:00,
2013-09-26 05:37:00,70.2,54.7,29.60,South,180,0.0,-999.0,58,-99.99,,,0.00,Acu-Link.com,2013-09-26 10:37:00,
2013-09-26 05:52:00,70.2,55.6,29.60,SSE,157,0.0,-999.0,60,-99.99,,,0.00,Acu-Link.com,2013-09-26 10:52:00,
2013-09-26 06:08:00,68.9,58.7,29.61,SSE,157,0.0,-999.0,70,-99.99,,,0.00,Acu-Link.com,2013-09-26 11:08:00,
2013-09-26 06:23:00,68.7,55.2,29.61,South,180,0.0,-999.0,62,-99.99,,,0.00,Acu-Link.com,2013-09-26 11:23:00,
2013-09-26 06:38:00,67.6,55.0,29.63,South,180,0.0,-999.0,64,-99.99,,,0.00,Acu-Link.com,2013-09-26 11:38:00,
2013-09-26 06:54:00,67.3,54.7,29.63,South,180,0.0,-999.0,64,-99.99,,,0.00,Acu-Link.com,2013-09-26 11:54:00,
2013-09-26 07:09:00,66.9,55.6,29.64,South,180,0.0,-999.0,67,-99.99,,,0.00,Acu-Link.com,2013-09-26 12:09:00,
2013-09-26 07:24:00,66.9,56.0,29.65,South,180,0.0,-999.0,68,-99.99,,,0.00,Acu-Link.com,2013-09-26 12:24:00,
2013-09-26 07:39:00,66.9,56.0,29.65,SE,135,0.0,-999.0,68,-99.99,,,0.00,Acu-Link.com,2013-09-26 12:39:00,
2013-09-26 07:54:00,66.9,56.4,29.65,South,180,0.0,-999.0,69,-99.99,,,0.00,Acu-Link.com,2013-09-26 12:54:00,
2013-09-26 08:09:00,67.3,57.5,29.66,South,180,0.0,-999.0,71,-99.99,,,0.00,Acu-Link.com,2013-09-26 13:09:00,
2013-09-26 08:25:00,67.6,58.3,29.66,South,180,0.0,-999.0,72,-99.99,,,0.00,Acu-Link.com,2013-09-26 13:25:00,
2013-09-26 08:40:00,68.5,59.1,29.67,South,180,0.0,-999.0,72,-99.99,,,0.00,Acu-Link.com,2013-09-26 13:40:00,
2013-09-26 08:55:00,69.6,60.2,29.68,South,180,0.0,-999.0,72,-99.99,,,0.00,Acu-Link.com,2013-09-26 13:55:00,
2013-09-26 09:10:00,71.1,60.8,29.67,SSW,202,1.1,-999.0,70,-99.99,,,0.00,Acu-Link.com,2013-09-26 14:10:00,
2013-09-26 09:25:00,72.1,61.4,29.68,NE,45,1.1,-999.0,69,-99.99,,,0.00,Acu-Link.com,2013-09-26 14:25:00,
2013-09-26 09:41:00,74.3,62.2,29.68,NNW,337,1.6,-999.0,66,-99.99,,,0.00,Acu-Link.com,2013-09-26 14:41:00,
2013-09-26 09:56:00,75.7,62.7,29.68,SSE,157,0.0,-999.0,64,-99.99,,,0.00,Acu-Link.com,2013-09-26 14:56:00,
2013-09-26 10:26:00,79.2,63.1,29.69,SSE,157,0.0,-999.0,58,-99.99,,,0.00,Acu-Link.com,2013-09-26 15:26:00,
2013-09-26 10:42:00,81.1,62.4,29.69,South,180,2.2,-999.0,53,-99.99,,,0.00,Acu-Link.com,2013-09-26 15:42:00,
2013-09-26 10:57:00,82.6,61.5,29.70,WSW,247,4.7,-999.0,49,-99.99,,,0.00,Acu-Link.com,2013-09-26 15:57:00,
2013-09-26 11:12:00,83.5,62.3,29.70,SSW,202,0.0,-999.0,49,-99.99,,,0.00,Acu-Link.com,2013-09-26 16:12:00,
2013-09-26 11:27:00,84.6,62.1,29.69,ESE,112,2.2,-999.0,47,-99.99,,,0.00,Acu-Link.com,2013-09-26 16:27:00,
2013-09-26 11:42:00,85.6,61.8,29.69,South,180,2.7,-999.0,45,-99.99,,,0.00,Acu-Link.com,2013-09-26 16:42:00,
2013-09-26 11:58:00,86.4,61.8,29.69,SE,135,1.6,-999.0,44,-99.99,,,0.00,Acu-Link.com,2013-09-26 16:58:00,
2013-09-26 12:13:00,87.4,61.5,29.69,SSW,202,2.2,-999.0,42,-99.99,,,0.00,Acu-Link.com,2013-09-26 17:13:00,
2013-09-26 12:28:00,88.7,61.2,29.69,SW,225,3.1,-999.0,40,-99.99,,,0.00,Acu-Link.com,2013-09-26 17:28:00,
2013-09-26 12:43:00,89.1,61.6,29.68,South,180,2.7,-999.0,40,-99.99,,,0.00,Acu-Link.com,2013-09-26 17:43:00,
2013-09-26 12:58:00,89.4,60.4,29.68,SW,225,2.7,-999.0,38,-99.99,,,0.00,Acu-Link.com,2013-09-26 17:58:00,
2013-09-26 13:14:00,90.3,61.2,29.67,ESE,112,2.7,-999.0,38,-99.99,,,0.00,Acu-Link.com,2013-09-26 18:14:00,
2013-09-26 13:29:00,90.5,61.4,29.67,SSE,157,0.0,-999.0,38,-99.99,,,0.00,Acu-Link.com,2013-09-26 18:29:00,
2013-09-26 13:44:00,90.9,60.9,29.67,ESE,112,1.1,-999.0,37,-99.99,,,0.00,Acu-Link.com,2013-09-26 18:44:00,
2013-09-26 13:59:00,91.6,60.8,29.66,South,180,0.0,-999.0,36,-99.99,,,0.00,Acu-Link.com,2013-09-26 18:59:00,
2013-09-26 14:14:00,91.4,59.0,29.66,SSW,202,1.1,-999.0,34,-99.99,,,0.00,Acu-Link.com,2013-09-26 19:14:00,
2013-09-26 14:30:00,91.8,58.5,29.66,SSW,202,1.6,-999.0,33,-99.99,,,0.00,Acu-Link.com,2013-09-26 19:30:00,
2013-09-26 14:45:00,92.3,59.0,29.65,WNW,292,2.2,-999.0,33,-99.99,,,0.00,Acu-Link.com,2013-09-26 19:45:00,
2013-09-26 15:00:00,91.4,58.2,29.65,SSW,202,0.0,-999.0,33,-99.99,,,0.00,Acu-Link.com,2013-09-26 20:00:00,
2013-09-26 15:15:00,91.8,58.5,29.64,SSW,202,1.6,-999.0,33,-99.99,,,0.00,Acu-Link.com,2013-09-26 20:15:00,
2013-09-26 15:30:00,92.3,59.8,29.64,SSW,202,0.0,-999.0,34,-99.99,,,0.00,Acu-Link.com,2013-09-26 20:30:00,
2013-09-26 15:46:00,91.8,56.8,29.64,ESE,112,1.6,-999.0,31,-99.99,,,0.00,Acu-Link.com,2013-09-26 20:46:00,
2013-09-26 16:01:00,91.9,56.9,29.64,SSE,157,1.6,-999.0,31,-99.99,,,0.00,Acu-Link.com,2013-09-26 21:01:00,
2013-09-26 16:16:00,91.6,57.5,29.63,NE,45,1.6,-999.0,32,-99.99,,,0.00,Acu-Link.com,2013-09-26 21:16:00,
2013-09-26 16:31:00,91.2,57.2,29.64,SW,225,2.7,-999.0,32,-99.99,,,0.00,Acu-Link.com,2013-09-26 21:31:00,
2013-09-26 16:47:00,91.8,58.5,29.63,South,180,1.6,-999.0,33,-99.99,,,0.00,Acu-Link.com,2013-09-26 21:47:00,
2013-09-26 17:02:00,91.4,56.5,29.63,ENE,67,1.1,-999.0,31,-99.99,,,0.00,Acu-Link.com,2013-09-26 22:02:00,
2013-09-26 17:17:00,91.0,58.7,29.63,WSW,247,1.6,-999.0,34,-99.99,,,0.00,Acu-Link.com,2013-09-26 22:17:00,
2013-09-26 17:32:00,91.2,58.9,29.63,South,180,1.6,-999.0,34,-99.99,,,0.00,Acu-Link.com,2013-09-26 22:32:00,
2013-09-26 17:47:00,91.2,58.0,29.63,East,90,0.0,-999.0,33,-99.99,,,0.00,Acu-Link.com,2013-09-26 22:47:00,
2013-09-26 18:03:00,90.1,57.9,29.63,South,180,1.6,-999.0,34,-99.99,,,0.00,Acu-Link.com,2013-09-26 23:03:00,
2013-09-26 18:18:00,90.7,58.4,29.63,West,270,1.1,-999.0,34,-99.99,,,0.00,Acu-Link.com,2013-09-26 23:18:00,
2013-09-26 18:33:00,89.8,57.6,29.63,West,270,1.1,-999.0,34,-99.99,,,0.00,Acu-Link.com,2013-09-26 23:33:00,
2013-09-26 18:48:00,89.6,57.5,29.64,South,180,0.0,-999.0,34,-99.99,,,0.00,Acu-Link.com,2013-09-26 23:48:00,
2013-09-26 19:03:00,88.5,57.3,29.64,SW,225,0.0,-999.0,35,-99.99,,,0.00,Acu-Link.com,2013-09-27 00:03:00,
2013-09-26 19:19:00,86.0,56.7,29.64,South,180,0.0,-999.0,37,-99.99,,,0.00,Acu-Link.com,2013-09-27 00:19:00,
2013-09-26 19:34:00,84.2,57.2,29.64,SSW,202,0.0,-999.0,40,-99.99,,,0.00,Acu-Link.com,2013-09-27 00:34:00,
2013-09-26 19:49:00,83.1,57.0,29.64,SSW,202,0.0,-999.0,41,-99.99,,,0.00,Acu-Link.com,2013-09-27 00:49:00,
2013-09-26 20:04:00,82.2,57.5,29.64,South,180,0.0,-999.0,43,-99.99,,,0.00,Acu-Link.com,2013-09-27 01:04:00,
2013-09-26 20:19:00,81.0,57.6,29.64,South,180,0.0,-999.0,45,-99.99,,,0.00,Acu-Link.com,2013-09-27 01:19:00,
2013-09-26 20:35:00,79.9,58.4,29.65,South,180,0.0,-999.0,48,-99.99,,,0.00,Acu-Link.com,2013-09-27 01:35:00,
2013-09-26 20:50:00,78.6,59.5,29.65,SSW,202,0.0,-999.0,52,-99.99,,,0.00,Acu-Link.com,2013-09-27 01:50:00,
2013-09-26 21:05:00,77.7,58.1,29.65,SSW,202,0.0,-999.0,51,-99.99,,,0.00,Acu-Link.com,2013-09-27 02:05:00,
2013-09-26 21:20:00,77.4,57.8,29.65,South,180,0.0,-999.0,51,-99.99,,,0.00,Acu-Link.com,2013-09-27 02:20:00,
2013-09-26 21:36:00,77.0,58.0,29.66,SSW,202,0.0,-999.0,52,-99.99,,,0.00,Acu-Link.com,2013-09-27 02:36:00,
2013-09-26 21:51:00,76.3,57.9,29.66,South,180,0.0,-999.0,53,-99.99,,,0.00,Acu-Link.com,2013-09-27 02:51:00,
2013-09-26 22:06:00,75.7,57.4,29.66,South,180,0.0,-999.0,53,-99.99,,,0.00,Acu-Link.com,2013-09-27 03:06:00,
2013-09-26 22:21:00,75.4,57.6,29.67,South,180,0.0,-999.0,54,-99.99,,,0.00,Acu-Link.com,2013-09-27 03:21:00,
2013-09-26 22:36:00,75.0,58.2,29.67,South,180,0.0,-999.0,56,-99.99,,,0.00,Acu-Link.com,2013-09-27 03:36:00,
2013-09-26 22:52:00,74.5,57.7,29.67,South,180,0.0,-999.0,56,-99.99,,,0.00,Acu-Link.com,2013-09-27 03:52:00,
2013-09-26 23:07:00,74.1,58.4,29.67,South,180,0.0,-999.0,58,-99.99,,,0.00,Acu-Link.com,2013-09-27 04:07:00,
2013-09-26 23:22:00,73.6,58.4,29.67,South,180,0.0,-999.0,59,-99.99,,,0.00,Acu-Link.com,2013-09-27 04:22:00,
2013-09-26 23:37:00,73.6,58.8,29.68,SE,135,0.0,-999.0,60,-99.99,,,0.00,Acu-Link.com,2013-09-27 04:37:00,
2013-09-26 23:52:00,73.4,58.7,29.68,South,180,0.0,-999.0,60,-99.99,,,0.00,Acu-Link.com,2013-09-27 04:52:00,